Terminal Aerodrome Forecast
Issued by NWS Boston, MA

Home | Current Version | Previous Version | Text Only | Print | Product List | Glossary On
Versions: 1 2 3 4 5 6 7 8 9 10 11 12 13 14 15 16 17 18 19 20 21 22 23 24 25 26 27 28 29 30 31 32 33 34 35 36 37 38 39 40 41 42 43 44 45 46 47
000
FTUS41 KBOX 251121
TAFPVD
TAF
KPVD 251121Z 2512/2612 35007KT P6SM SKC
     FM251500 01005KT P6SM FEW050
     FM251700 13006KT P6SM FEW050
     FM252300 19009KT P6SM SKC
     FM260400 22005KT P6SM FEW250=

USA.gov is the U.S. government's official web portal to all federal, state and local government web resources and services.